Regional Weather Roundup
Issued by NWS Cleveland, OH

Home | Current Version | Previous Version | Graphics & Text | Print | Product List | Glossary On
Versions: 1 2 3 4 5 6 7 8 9 10 11 12 13 14 15 16 17 18 19 20 21 22 23 24 25 26 27 28 29 30 31 32 33 34 35 36 37 38 39 40 41 42 43 44 45 46 47 48 49 50
000
ASUS41 KCLE 051510
RWRCLE
OHIO REGIONAL WEATHER ROUNDUP
NATIONAL WEATHER SERVICE CLEVELAND, OH
1100 AM EDT TUE MAY 05 2015

NOTE: "FAIR" INDICATES FEW OR NO CLOUDS BELOW 12,000 FEET WITH NO
SIGNIFICANT WEATHER AND/OR OBSTRUCTIONS TO VISIBILITY.

OHZ001>008-015>018-024>027-034-035-043-044-051600-
   NORTHWEST OHIO

CITY           SKY/WX    TMP DP  RH WIND       PRES   REMARKS
DEFIANCE       LGT RAIN  58  56  93 E8        30.27S FOG
FINDLAY        CLOUDY    65  61  87 CALM      30.26R FOG
TOLEDO EXPRESS LGT RAIN  54  47  77 NE6       30.28R
TOLEDO EXEC    LGT RAIN  54  46  74 NE6       30.29R
LIMA           LGT RAIN  66  62  87 CALM      30.26S
$$

OHZ009>014-019>023-028>033-038-089-051600-
   NORTHEAST OHIO

CITY           SKY/WX    TMP DP  RH WIND       PRES   REMARKS
CLE-HOPKINS    CLOUDY    66  60  81 VRB3      30.28S FOG
CLE-LAKEFRONT  CLOUDY    56  52  86 CALM      30.25F FOG
CUY CO. ARPT   LGT RAIN  66  63  88 CALM      30.28R FOG
LORAIN-ELYRIA  LGT RAIN  65  60  84 W5        30.27R
ASHTABULA      RAIN      62  59  90 S6        30.29S FOG
AKRON-CANTON   PTSUNNY   67  60  78 SW7       30.28F HAZE
WOOSTER        LGT RAIN  65  60  84 SW6       30.29R
MANSFIELD      CLOUDY    63  61  93 VRB3      30.28S
YOUNGSTOWN     LGT RAIN  62  60  93 SE5       30.29R VSB 3/4
$$

OHZ042-051>053-060>062-070>072-077>081-051600-
  SOUTHWEST OHIO

CITY           SKY/WX    TMP DP  RH WIND       PRES   REMARKS
CINC-COVINGTON MOSUNNY   76  56  49 W8        30.28R
CINC-LUNKEN    SUNNY     75  61  61 CALM      30.27S
HAMILTON       SUNNY     77  57  50 VRB5      30.27F
DAYTON         MOSUNNY   72  62  71 SE12      30.28S
WRIGHT-PAT AFB MOSUNNY   71  63  76 SE9       30.27F
DAYTON GENERAL SUNNY     72  60  66 S7        30.27S
WILMINGTON     CLOUDY    73  57  57 SW7       30.28S
$$

OHZ036-037-039>041-045>050-054>059-063>069-073>076-082>088-051600-
  CENTRAL AND SOUTHEAST OHIO

CITY           SKY/WX    TMP DP  RH WIND       PRES   REMARKS
COLUMBUS       CLOUDY    68  61  78 CALM      30.29S
OSU AIRPORT    MOSUNNY   68  61  78 VRB5      30.28F
BOLTON FIELD   MOSUNNY   70  61  73 CALM      30.29F
RICKENBACK AFB MOSUNNY   69  60  72 CALM      30.29S
NEWARK         MOSUNNY   69  61  75 CALM      30.29S
MARION         PTSUNNY   65  61  87 NE3       30.27S FOG
LANCASTER      MOSUNNY   71  60  68 CALM      30.30S
ZANESVILLE     MOSUNNY   68  59  73 NW7       30.30R
NEW PHILLY     CLOUDY    67  62  84 S6        30.30R HAZE
$$



USA.gov is the U.S. government's official web portal to all federal, state and local government web resources and services.